GW1618 Weather Reports


time (UTC)temp
F
wind
direction
speed
knots
gust
knots
rain 1hr
in
rain 24hr
in
rain mn
in
humidity
%
barometer
mb
20260510201207 63 327 5.2 13.0 0.00 0.00 0.00 53 1018.6
20260510200706 64 271 3.5 9.6 0.00 0.00 0.00 51 1018.6
20260510200207 64 256 2.6 6.1 0.00 0.00 0.00 51 1018.6
20260510200035 63 322 3.5 7.8 0.00 0.00 0.00 51 1018.6
20260510194722 62 191 3.5 9.6 0.00 0.00 0.00 53 1018.6
20260510193704 62 198 4.3 11.3 0.00 0.00 0.00 54 1018.6
20260510193204 62 227 6.1 12.2 0.00 0.00 0.00 54 1018.4
20260510192705 62 304 6.1 13.0 0.00 0.00 0.00 54 1018.4
20260510192203 63 320 5.2 13.0 0.00 0.00 0.00 53 1018.4
20260510191703 63 246 4.3 9.6 0.00 0.00 0.00 53 1018.4
20260510191205 62 261 4.3 9.6 0.00 0.00 0.00 53 1018.4
20260510190704 61 186 4.3 8.7 0.00 0.00 0.00 56 1018.4
20260510190205 61 271 4.3 10.4 0.00 0.00 0.00 56 1018.4
20260510185700 61 234 3.5 10.4 0.00 0.00 0.00 57 1018.4
20260510185202 60 181 3.5 8.7 0.00 0.00 0.00 57 1018.4
20260510184702 60 207 4.3 10.4 0.00 0.00 0.00 58 1018.6
20260510184201 60 210 4.3 10.4 0.00 0.00 0.00 58 1018.6
20260510183704 60 177 3.5 7.0 0.00 0.00 0.00 59 1018.6
20260510183452 60 209 3.5 6.1 0.00 0.00 0.00 61 1018.2
20260510182703 60 210 4.3 9.6 0.00 0.00 0.00 60 1018.2
20260510182202 60 186 4.3 9.6 0.00 0.00 0.00 60 1018.2
20260510181702 60 223 4.3 10.4 0.00 0.00 0.00 59 1018.3
20260510181200 59 268 6.1 11.3 0.00 0.00 0.00 59 1018.3
20260510180702 59 22 5.2 11.3 0.00 0.00 0.00 58 1018.3
20260510180204 59 304 4.3 9.6 0.00 0.00 0.00 58 1018.3
20260510175702 59 271 3.5 9.6 0.00 0.00 0.00 60 1018.3
20260510175155 59 277 2.6 6.1 0.00 0.00 0.00 62 1018.3
20260510174647 58 245 2.6 6.1 0.00 0.00 0.00 63 1018.3
20260510174142 58 196 3.5 10.4 0.00 0.00 0.00 64 1018.3
20260510173631 58 257 5.2 10.4 0.00 0.00 0.00 63 1018.3
20260510173130 58 232 4.3 9.6 0.00 0.00 0.00 62 1017.9
20260510172629 58 273 3.5 9.6 0.00 0.00 0.00 62 1017.9
20260510172128 58 31 4.3 8.7 0.00 0.00 0.00 64 1017.9
20260510171920 58 315 4.3 8.7 0.00 0.00 0.00 63 1018.0
20260510171420 58 337 3.5 7.0 0.00 0.00 0.00 65 1018.0
20260510170629 57 182 4.3 7.8 0.00 0.00 0.00 68 1018.0
20260510170130 57 196 4.3 8.7 0.00 0.00 0.00 70 1018.0
20260510165631 56 197 3.5 8.7 0.00 0.00 0.00 71 1018.0
20260510165132 56 236 2.6 7.8 0.00 0.00 0.00 71 1018.0
20260510164621 56 262 2.6 7.8 0.00 0.00 0.00 73 1018.1
20260510164358 56 186 2.6 5.2 0.00 0.00 0.00 73 1018.1
20260510163606 56 221 2.6 5.2 0.00 0.00 0.00 74 1018.1
20260510163108 55 204 3.5 5.2 0.00 0.00 0.00 75 1018.1
20260510162609 55 146 3.5 6.1 0.00 0.00 0.00 76 1018.1
20260510162103 54 233 3.5 6.1 0.00 0.00 0.00 77 1018.1
20260510161604 54 188 3.5 5.2 0.00 0.00 0.00 77 1018.0
20260510161103 54 181 2.6 4.3 0.00 0.00 0.00 78 1018.0
20260510160604 54 202 1.7 4.3 0.00 0.00 0.00 78 1018.0
20260510155602 54 148 0.9 2.6 0.00 0.00 0.00 79 1017.4
20260510155103 53 212 1.7 4.3 0.00 0.00 0.00 80 1017.4
20260510154602 53 204 2.6 5.2 0.00 0.00 0.00 80 1017.2
20260510154102 53 227 2.6 5.2 0.00 0.00 0.00 80 1017.2
20260510153600 53 266 0.9 3.5 0.00 0.00 0.00 80 1017.2
20260510153103 53 223 0.0 2.6 0.00 0.00 0.00 81 1017.0
20260510152602 53 179 0.9 3.5 0.00 0.00 0.00 82 1017.0
20260510152103 52 191 1.7 4.3 0.00 0.00 0.00 82 1017.0
20260510151603 52 212 0.9 4.3 0.00 0.00 0.00 83 1017.5
20260510151104 52 262 0.9 2.6 0.00 0.00 0.00 83 1017.5
20260510150602 52 173 1.7 2.6 0.00 0.00 0.00 84 1017.5
20260510145601 52 221 0.9 2.6 0.00 0.00 0.00 84 1017.5
20260510145102 51 211 0.9 2.6 0.00 0.00 0.00 85 1017.5
20260510144602 51 225 0.9 1.7 0.00 0.00 0.00 85 1017.1
20260510144104 51 97 0.0 0.9 0.00 0.00 0.00 85 1017.1
20260510143840 51 97 0.9 1.7 0.00 0.00 0.00 90 1017.1
20260510143107 51 98 1.7 2.6 0.00 0.00 0.00 86 1017.0
20260510142602 51 21 1.7 3.5 0.00 0.00 0.00 86 1017.0
20260510142041 51 30 1.7 3.5 0.00 0.00 0.00 86 1017.4
20260510141539 51 336 0.9 2.6 0.00 0.00 0.00 86 1017.4
20260510141041 51 359 1.7 2.6 0.00 0.00 0.00 86 1017.4
20260510140538 51 309 0.9 2.6 0.00 0.00 0.00 86 1017.5
20260510140036 50 235 1.7 3.5 0.00 0.00 0.00 87 1017.5
20260510135816 50 268 1.7 3.5 0.00 0.00 0.00 86 1017.5
20260510135034 50 273 0.9 2.6 0.00 0.00 0.00 87 1017.3
20260510134535 50 219 0.9 4.3 0.00 0.00 0.00 87 1017.3
20260510134036 50 205 1.7 4.3 0.00 0.00 0.00 87 1017.3
20260510133531 50 258 0.9 3.5 0.00 0.00 0.00 87 1016.7
20260510133302 50 216 0.9 2.6 0.00 0.00 0.00 87 1016.7
20260510132526 50 327 0.9 2.6 0.00 0.00 0.00 87 1016.7
20260510132300 50 167 0.9 1.7 0.00 0.00 0.00 87 1016.7
20260510131513 50 84 0.9 1.7 0.00 0.00 0.00 87 1016.7
20260510131017 50 92 0.9 1.7 0.00 0.00 0.00 87 1016.7
20260510130504 50 303 0.9 2.6 0.00 0.00 0.00 87 1017.0
20260510130004 50 248 1.7 2.6 0.00 0.00 0.00 87 1017.0
20260510125459 50 122 0.9 2.6 0.00 0.00 0.00 87 1017.0
20260510124945 50 162 0.9 2.6 0.00 0.00 0.00 86 1017.0
20260510124429 50 164 1.7 3.5 0.00 0.00 0.00 86 1017.0
20260510123929 50 142 1.7 3.5 0.00 0.00 0.00 86 1017.0
20260510123432 50 149 1.7 4.3 0.00 0.00 0.00 87 1017.2
20260510122931 50 147 1.7 4.3 0.00 0.00 0.00 87 1017.2
20260510122430 50 185 1.7 3.5 0.00 0.00 0.00 87 1017.2
20260510121928 50 151 1.7 3.5 0.00 0.00 0.00 87 1017.1
20260510121431 50 142 2.6 4.3 0.00 0.00 0.00 86 1017.1
20260510120930 50 173 2.6 4.3 0.00 0.00 0.00 86 1017.1
20260510120430 50 178 2.6 3.5 0.00 0.00 0.00 86 1017.0
20260510115930 50 154 1.7 3.5 0.00 0.00 0.00 86 1017.0
20260510115429 50 205 0.9 3.5 0.00 0.00 0.00 86 1017.0
20260510114938 50 243 1.7 5.2 0.00 0.00 0.00 86 1016.9
20260510114429 50 206 2.6 5.2 0.00 0.00 0.00 86 1016.9
20260510113929 51 213 1.7 3.5 0.00 0.00 0.00 86 1016.9
20260510113429 51 168 1.7 4.3 0.00 0.00 0.00 86 1016.6
20260510112930 51 208 2.6 4.3 0.00 0.00 0.00 86 1016.6
20260510112428 51 214 2.6 4.3 0.00 0.00 0.00 86 1016.6
20260510111956 51 216 2.6 4.3 0.00 0.00 0.00 85 1016.5
20260510111228 51 141 2.6 4.3 0.00 0.00 0.00 85 1016.5
20260510110429 51 159 1.7 4.3 0.00 0.00 0.00 85 1016.8
20260510105930 51 213 1.7 4.3 0.00 0.00 0.00 86 1016.8
20260510105434 51 161 1.7 4.3 0.00 0.00 0.00 86 1016.8
20260510104927 51 181 1.7 3.5 0.00 0.00 0.00 86 1016.6
20260510104417 52 173 1.7 2.6 0.00 0.00 0.00 86 1016.6
20260510103905 52 175 1.7 3.5 0.00 0.00 0.00 86 1016.6
20260510103405 52 202 1.7 3.5 0.00 0.00 0.00 86 1016.2
20260510102857 52 232 1.7 3.5 0.00 0.00 0.00 86 1016.2
20260510102345 52 264 0.9 3.5 0.00 0.00 0.00 86 1016.2
20260510101841 52 188 0.9 3.5 0.00 0.00 0.00 86 1016.0
20260510101331 52 188 1.7 3.5 0.00 0.00 0.00 86 1016.0
20260510100824 52 192 0.9 3.5 0.00 0.00 0.00 86 1016.0
20260510100322 52 244 0.9 2.6 0.00 0.00 0.00 85 1016.0
20260510095819 53 189 0.9 1.7 0.00 0.00 0.00 85 1016.0
20260510095315 53 185 1.7 2.6 0.00 0.00 0.00 85 1016.0
20260510094813 53 152 1.7 3.5 0.00 0.00 0.00 85 1016.2
20260510094309 53 156 1.7 3.5 0.00 0.00 0.00 86 1016.2
20260510093803 53 204 0.9 2.6 0.00 0.00 0.00 86 1016.2
20260510093537 53 238 1.7 2.6 0.00 0.00 0.00 86 1016.1
20260510093042 53 227 1.7 2.6 0.00 0.00 0.00 86 1016.1
20260510092301 53 250 1.7 2.6 0.00 0.00 0.00 86 1016.1
20260510091806 53 240 1.7 2.6 0.00 0.00 0.00 85 1016.0
20260510091303 53 265 0.9 2.6 0.00 0.00 0.00 85 1016.0
20260510090804 53 199 0.9 1.7 0.00 0.00 0.00 85 1016.0
20260510090301 53 261 0.0 1.7 0.00 0.00 0.00 85 1016.1
20260510085802 53 266 0.9 2.6 0.00 0.00 0.00 85 1016.1
20260510085255 54 266 1.7 2.6 0.00 0.00 0.00 85 1016.1
20260510085028 54 257 1.7 4.3 0.00 0.00 0.00 85 1016.0
20260510084239 54 207 1.7 4.3 0.00 0.00 0.00 85 1016.0
20260510084025 54 212 0.9 2.6 0.00 0.00 0.00 84 1016.0
20260510083233 54 229 0.9 2.6 0.00 0.00 0.00 84 1016.0
20260510082730 55 223 0.9 1.7 0.00 0.00 0.00 84 1016.0
20260510082231 55 256 1.7 3.5 0.00 0.00 0.00 84 1016.0
20260510081730 55 246 2.6 3.5 0.00 0.00 0.00 84 1015.9
20260510081230 55 245 1.7 3.5 0.00 0.00 0.00 84 1015.9
20260510080733 55 215 1.7 3.5 0.00 0.00 0.00 84 1015.9
20260510080228 55 230 1.7 4.3 0.00 0.00 0.00 84 1015.7
20260510080019 55 232 2.6 4.3 0.00 0.00 0.00 84 1015.7
20260510075227 56 243 2.6 4.3 0.00 0.00 0.00 84 1015.7
20260510074726 56 246 0.9 4.3 0.00 0.00 0.00 84 1015.5
20260510074223 55 244 0.0 1.7 0.00 0.00 0.00 83 1015.5
20260510073722 56 9 0.0 0.9 0.00 0.00 0.00 83 1015.5
20260510073441 56 9 0.0 0.9 0.00 0.00 0.00 83 1015.5
20260510072938 56 9 0.9 1.7 0.00 0.00 0.00 82 1015.5
20260510072203 56 9 0.9 1.7 0.00 0.00 0.00 82 1015.5
20260510071137 56 9 0.0 1.7 0.00 0.00 0.00 81 1015.5
20260510070630 56 9 0.0 0.9 0.00 0.00 0.00 80 1015.5
20260510070127 56 9 0.9 1.7 0.00 0.00 0.00 80 1015.4
20260510065622 56 9 0.9 1.7 0.00 0.00 0.00 80 1015.4
20260510065118 56 9 0.9 1.7 0.00 0.00 0.00 80 1015.4
20260510064606 56 9 0.0 0.9 0.00 0.00 0.00 80 1015.4
20260510064102 56 9 0.9 0.9 0.00 0.00 0.00 80 1015.4
20260510063602 56 9 0.9 1.7 0.00 0.00 0.00 80 1015.5
20260510063051 56 9 0.0 1.7 0.00 0.00 0.00 79 1015.5
20260510062545 56 9 0.0 0.9 0.00 0.00 0.00 79 1015.5
20260510062032 56 9 0.0 0.9 0.00 0.00 0.00 79 1015.5
20260510061531 57 9 0.0 0.9 0.00 0.00 0.00 78 1015.5
20260510061032 57 9 0.0 1.7 0.00 0.00 0.00 78 1015.5
20260510060539 57 9 0.0 1.7 0.00 0.00 0.00 77 1015.7
20260510060031 57 9 0.0 1.7 0.00 0.00 0.00 76 1015.7
20260510055529 57 9 0.9 1.7 0.00 0.00 0.00 76 1015.7
20260510055020 58 9 1.7 2.6 0.00 0.00 0.00 75 1015.6
20260510054517 58 9 0.9 2.6 0.00 0.00 0.00 75 1015.6
20260510054014 58 354 0.9 1.7 0.00 0.00 0.00 75 1015.6
20260510053750 58 354 0.9 1.7 0.00 0.00 0.00 74 1015.5
20260510053005 58 354 0.9 1.7 0.00 0.00 0.00 74 1015.5
20260510052506 58 354 0.9 1.7 0.00 0.00 0.00 75 1015.5
20260510051959 59 359 0.9 1.7 0.00 0.00 0.00 75 1015.4
20260510051459 59 359 0.9 1.7 0.00 0.00 0.00 72 1015.4
20260510050955 59 354 0.9 1.7 0.00 0.00 0.00 72 1015.4
20260510050455 59 352 0.9 1.7 0.00 0.00 0.00 71 1015.4
20260510045956 59 352 0.9 1.7 0.00 0.00 0.00 71 1015.4
20260510045454 59 352 0.9 1.7 0.00 0.00 0.00 70 1015.4
20260510044951 60 352 0.9 1.7 0.00 0.00 0.00 72 1015.2
20260510044446 60 353 0.9 1.7 0.00 0.00 0.00 70 1015.2
20260510043947 60 359 0.9 2.6 0.00 0.00 0.00 69 1015.2
20260510043436 60 351 1.7 2.6 0.00 0.00 0.00 68 1015.2
20260510042931 61 346 1.7 2.6 0.00 0.00 0.00 67 1015.2
20260510042431 61 349 1.7 2.6 0.00 0.00 0.00 69 1015.2
20260510041931 61 348 1.7 2.6 0.00 0.00 0.00 68 1015.2
20260510041433 62 9 1.7 2.6 0.00 0.00 0.00 66 1015.2
20260510040930 62 4 0.9 1.7 0.00 0.00 0.00 63 1015.2
20260510040706 62 4 0.0 0.9 0.00 0.00 0.00 62 1015.1
20260510035931 62 4 0.9 0.9 0.00 0.00 0.00 62 1015.1
20260510035427 63 4 0.9 1.7 0.00 0.00 0.00 64 1015.1
20260510034922 63 4 0.9 1.7 0.00 0.00 0.00 62 1015.1
20260510034641 64 359 0.9 2.6 0.00 0.00 0.00 61 1015.1
20260510033902 64 359 1.7 2.6 0.00 0.00 0.00 60 1015.1
20260510033403 64 4 1.7 3.5 0.00 0.00 0.00 61 1015.0
20260510033144 64 13 2.6 3.5 0.00 0.00 0.00 60 1015.0
20260510032402 64 22 2.6 3.5 0.00 0.00 0.00 59 1015.0
20260510031902 65 16 1.7 3.5 0.00 0.00 0.00 59 1015.0
20260510031651 65 359 1.7 3.5 0.00 0.00 0.00 59 1015.0
20260510030902 66 28 2.6 3.5 0.00 0.00 0.00 55 1015.0
20260510030401 66 359 2.6 4.3 0.00 0.00 0.00 54 1014.9
20260510025902 66 338 2.6 4.3 0.00 0.00 0.00 54 1014.9
20260510025401 66 354 2.6 3.5 0.00 0.00 0.00 54 1014.9
20260510024901 67 13 1.7 3.5 0.00 0.00 0.00 53 1015.0
20260510024402 68 17 1.7 4.3 0.00 0.00 0.00 51 1015.0
20260510023904 68 48 1.7 4.3 0.00 0.00 0.00 48 1015.0
20260510023404 68 47 2.6 5.2 0.00 0.00 0.00 47 1015.0
20260510022905 68 92 3.5 6.1 0.00 0.00 0.00 46 1015.0
20260510022403 68 56 3.5 6.1 0.00 0.00 0.00 46 1015.0
20260510021902 68 82 3.5 5.2 0.00 0.00 0.00 45 1015.2
20260510021428 68 78 3.5 5.2 0.00 0.00 0.00 45 1015.2
20260510020403 68 111 3.5 5.2 0.00 0.00 0.00 45 1015.4
20260510015901 69 81 3.5 5.2 0.00 0.00 0.00 44 1015.4
20260510015403 69 150 2.6 5.2 0.00 0.00 0.00 43 1015.4
20260510014928 69 77 2.6 4.3 0.00 0.00 0.00 43 1015.5
20260510013902 69 86 2.6 5.2 0.00 0.00 0.00 43 1015.5
20260510013402 69 98 3.5 5.2 0.00 0.00 0.00 43 1015.8
20260510012901 69 44 3.5 6.1 0.00 0.00 0.00 43 1015.8
20260510012403 69 54 3.5 6.1 0.00 0.00 0.00 42 1015.8
20260510011903 69 88 2.6 6.1 0.00 0.00 0.00 42 1016.0
20260510011429 69 71 2.6 5.2 0.00 0.00 0.00 42 1016.0
20260510010403 69 50 2.6 6.1 0.00 0.00 0.00 43 1016.1
20260510005903 69 75 2.6 5.2 0.00 0.00 0.00 45 1016.1
20260510005404 68 9 3.5 5.2 0.00 0.00 0.00 42 1016.1
20260510004903 68 69 3.5 5.2 0.00 0.00 0.00 44 1016.2
20260510004655 68 4 2.6 4.3 0.00 0.00 0.00 44 1016.2
20260510003851 68 355 1.7 4.3 0.00 0.00 0.00 46 1016.2
20260510003344 68 92 2.6 5.2 0.00 0.00 0.00 47 1016.4
20260510002840 68 4 3.5 5.2 0.00 0.00 0.00 45 1016.4
20260510002336 68 351 3.5 7.0 0.00 0.00 0.00 47 1016.4
20260510001837 68 359 3.5 7.0 0.00 0.00 0.00 47 1016.5
20260510001631 67 4 3.5 5.2 0.00 0.00 0.00 47 1016.5
20260510000838 67 15 3.5 6.1 0.00 0.00 0.00 47 1016.5
20260510000622 67 15 3.5 6.1 0.00 0.00 0.00 47 1016.7
20260509235831 67 359 3.5 6.1 0.00 0.00 0.00 46 1016.7
20260509235331 67 17 3.5 5.2 0.00 0.00 0.00 47 1016.7
20260509234832 67 4 3.5 5.2 0.00 0.00 0.00 48 1017.0
20260509234331 67 9 3.5 6.1 0.00 0.00 0.00 47 1017.0
20260509233832 67 350 4.3 6.1 0.00 0.00 0.00 47 1017.0
20260509233331 67 344 4.3 6.1 0.00 0.00 0.00 47 1017.0
20260509232829 67 13 4.3 6.1 0.00 0.00 0.00 45 1017.0
20260509232330 67 9 3.5 6.1 0.00 0.00 0.00 46 1017.0
20260509231829 67 9 3.5 6.1 0.00 0.00 0.00 46 1017.2
20260509231645 67 342 4.3 6.1 0.00 0.00 0.00 46 1017.2
20260509230338 66 4 4.3 6.1 0.00 0.00 0.00 47 1017.5
20260509225834 66 359 4.3 6.1 0.00 0.00 0.00 50 1017.5
20260509225615 66 359 3.5 6.1 0.00 0.00 0.00 51 1017.5
20260509224829 66 26 3.5 6.1 0.00 0.00 0.00 50 1017.6
20260509224330 66 4 3.5 5.2 0.00 0.00 0.00 51 1017.6
20260509223823 66 4 3.5 4.3 0.00 0.00 0.00 51 1017.6
20260509223321 66 332 3.5 5.2 0.00 0.00 0.00 52 1018.0
20260509222823 66 359 4.3 5.2 0.00 0.00 0.00 53 1018.0
20260509222319 65 347 4.3 5.2 0.00 0.00 0.00 52 1018.0
20260509221819 65 21 4.3 6.1 0.00 0.00 0.00 53 1018.1
20260509221318 65 9 4.3 6.1 0.00 0.00 0.00 53 1018.1
20260509220818 65 4 4.3 6.1 0.00 0.00 0.00 53 1018.1
20260509220318 65 28 4.3 6.1 0.00 0.00 0.00 52 1018.5
20260509215815 65 30 4.3 6.1 0.00 0.00 0.00 52 1018.5
20260509215315 65 4 4.3 6.1 0.00 0.00 0.00 53 1018.5
20260509214815 64 9 4.3 6.1 0.00 0.00 0.00 53 1018.6
20260509214313 64 4 5.2 7.0 0.00 0.00 0.00 54 1018.6
20260509214058 64 19 4.3 7.0 0.00 0.00 0.00 55 1018.6
20260509213313 64 26 4.3 6.1 0.00 0.00 0.00 57 1018.6
20260509212816 64 341 5.2 6.1 0.00 0.00 0.00 58 1018.6
20260509212311 63 359 5.2 7.0 0.00 0.00 0.00 55 1018.6
20260509211806 63 9 5.2 6.1 0.00 0.00 0.00 57 1018.7
20260509211259 62 16 5.2 6.1 0.00 0.00 0.00 56 1018.7
20260509211038 62 13 5.2 7.8 0.00 0.00 0.00 57 1018.7
20260509210243 62 9 5.2 7.8 0.00 0.00 0.00 58 1019.0
20260509205741 62 9 5.2 7.8 0.00 0.00 0.00 57 1019.0
20260509205240 62 9 5.2 7.8 0.00 0.00 0.00 59 1019.0
20260509205026 62 14 6.1 7.8 0.00 0.00 0.00 59 1019.1
20260509204237 62 15 5.2 7.0 0.00 0.00 0.00 59 1019.1
20260509203737 62 9 5.2 8.7 0.00 0.00 0.00 60 1019.1
20260509203236 62 359 5.2 8.7 0.00 0.00 0.00 59 1019.1
20260509202736 61 354 5.2 8.7 0.00 0.00 0.00 60 1019.1
20260509202236 61 18 6.1 8.7 0.00 0.00 0.00 60 1019.1
20260509201736 61 9 7.0 9.6 0.00 0.00 0.00 60 1019.3